Location: Bratislava
(48.1500°N, 17.1170°E)
Time: 16:00:45
(UTC+02:00)

ACS3 Solar Sail - Visible Passes

Search period start: 10 May 2026 00:00
Search period end: 20 May 2026 00:00
Orbit: 890 x 951 km, 97.2° (Epoch: 8 May)

Date Brightness Start Highest point End Pass type
(mag) Time Alt. Az. Time Alt. Az. Time Alt. Az.
10 May 3.0 00:46:15 10° NNE 00:51:22 28° E 00:53:00 25° ESE visible
10 May 2.1 02:28:11 10° N 02:33:59 54° WNW 02:36:30 33° SW visible
10 May 3.8 04:13:21 10° NNW 04:15:03 11° NW 04:16:45 10° WNW visible
11 May 2.8 00:54:45 10° NNE 01:00:08 33° E 01:01:51 28° ESE visible
11 May 2.3 02:36:56 10° N 02:42:37 46° WNW 02:45:20 28° WSW visible
12 May 2.6 01:03:18 10° NNE 01:08:54 39° E 01:10:42 32° SE visible
12 May 2.5 02:45:42 10° N 02:51:14 40° WNW 02:54:11 24° WSW visible
13 May 2.3 01:11:53 10° NNE 01:17:39 46° E 01:19:33 35° SE visible
13 May 2.7 02:54:29 10° N 02:59:50 35° WNW 03:03:02 21° WSW visible
14 May 2.1 01:20:29 10° NNE 01:26:23 54° E 01:28:23 38° SSE visible
14 May 2.9 03:03:19 10° N 03:08:25 30° WNW 03:11:53 18° WSW visible
14 May 4.0 23:50:46 10° ENE 23:51:34 10° E 23:52:22 10° E visible
15 May 1.9 01:29:07 10° NNE 01:35:06 63° E 01:37:14 40° SSE visible
15 May 3.1 03:12:10 10° N 03:17:00 26° WNW 03:20:44 15° WSW visible
15 May 3.8 23:57:55 10° ENE 00:00:26 13° E 00:02:36 11° ESE visible
16 May 1.8 01:37:45 10° NNE 01:43:48 74° E 01:46:05 40° S visible
16 May 3.3 03:21:02 10° N 03:25:33 23° WNW 03:29:34 12° WSW visible
17 May 3.7 00:05:55 10° NE 00:09:18 15° E 00:11:26 13° ESE visible
17 May 1.7 01:46:26 10° NNE 01:52:30 86° ESE 01:54:56 39° S visible
17 May 3.4 03:29:58 10° NNW 03:34:06 20° WNW 03:38:15 10° WSW visible
18 May 3.5 00:14:07 10° NE 00:18:09 18° E 00:20:17 15° ESE visible
18 May 1.7 01:55:08 10° N 02:01:12 82° WNW 02:03:47 37° SSW visible
18 May 3.6 03:38:57 10° NNW 03:42:39 17° NW 03:46:21 10° W visible
19 May 3.3 00:22:27 10° NE 00:26:58 21° E 00:29:08 18° ESE visible
19 May 1.8 02:03:52 10° N 02:09:52 71° WNW 02:12:37 34° SSW visible
19 May 3.7 03:48:00 10° NNW 03:51:11 15° NW 03:54:20 10° W visible
